owner,sensor,date,latitude,longitude,air_pressure(mBar),qcFlag 
TABS,ioos:station:wmo:42044:1,2012-04-01T00:00:00Z,26.1914,-97.0507,1009.26,11111222 
TABS,ioos:station:wmo:42044:1,2012-04-01T00:30:00Z,26.1914,-97.0507,1009.35,11111222 
TABS,ioos:station:wmo:42044:1,2012-04-01T01:00:00Z,26.1914,-97.0507,1009.38,11111222 
TABS,ioos:station:wmo:42044:1,2012-04-01T01:30:00Z,26.1914,-97.0507,1009.99,11111222 
TABS,ioos:station:wmo:42044:1,2012-04-01T02:00:00Z,26.1914,-97.0507,1010.28,11111222 
TABS,ioos:station:wmo:42044:1,2012-04-01T02:30:00Z,26.1914,-97.0507,1010.58,11111222 
TABS,ioos:station:wmo:42044:1,2012-04-01T03:00:00Z,26.1914,-97.0507,1010.92,11111222 
TABS,ioos:station:wmo:42044:1,2012-04-01T03:30:00Z,26.1914,-97.0507,1010.97,11111222 
TABS,ioos:station:wmo:42044:1,2012-04-01T04:00:00Z,26.1914,-97.0507,1010.89,11111222 
TABS,ioos:station:wmo:42044:1,2012-04-01T04:30:00Z,26.1914,-97.0507,1010.72,11111222 
TABS,ioos:station:wmo:42044:1,2012-04-01T05:00:00Z,26.1914,-97.0507,1010.96,11111222 
TABS,ioos:station:wmo:42044:1,2012-04-01T05:30:00Z,26.1914,-97.0507,1010.62,11111222 
TABS,ioos:station:wmo:42044:1,2012-04-01T06:00:00Z,26.1914,-97.0507,1010.71,11111222 
TABS,ioos:station:wmo:42044:1,2012-04-01T06:30:00Z,26.1914,-97.0507,1010.53,11111222 
TABS,ioos:station:wmo:42044:1,2012-04-01T07:00:00Z,26.1914,-97.0507,1010.57,11111222 
TABS,ioos:station:wmo:42044:1,2012-04-01T07:30:00Z,26.1914,-97.0507,1010.22,11111222 
TABS,ioos:station:wmo:42044:1,2012-04-01T08:00:00Z,26.1914,-97.0507,1009.87,11111222 
TABS,ioos:station:wmo:42044:1,2012-04-01T08:30:00Z,26.1914,-97.0507,1009.54,11111222 
TABS,ioos:station:wmo:42044:1,2012-04-01T09:00:00Z,26.1914,-97.0507,1009.02,11111222 
TABS,ioos:station:wmo:42044:1,2012-04-01T09:30:00Z,26.1914,-97.0507,1008.9,11111222 
TABS,ioos:station:wmo:42044:1,2012-04-01T10:00:00Z,26.1914,-97.0507,1008.55,11111222 
TABS,ioos:station:wmo:42044:1,2012-04-01T10:30:00Z,26.1914,-97.0507,1008.47,11111222 
TABS,ioos:station:wmo:42044:1,2012-04-01T11:00:00Z,26.1914,-97.0507,1008.38,11111222 
TABS,ioos:station:wmo:42044:1,2012-04-01T11:30:00Z,26.1914,-97.0507,1008.52,11111222 
TABS,ioos:station:wmo:42044:1,2012-04-01T12:00:00Z,26.1914,-97.0507,1008.87,11111222 
TABS,ioos:station:wmo:42044:1,2012-04-01T12:30:00Z,26.1914,-97.0507,1009.01,11111222 
TABS,ioos:station:wmo:42044:1,2012-04-01T13:00:00Z,26.1914,-97.0507,1009.42,11111222 
TABS,ioos:station:wmo:42044:1,2012-04-01T13:30:00Z,26.1914,-97.0507,1009.4,11111222 
TABS,ioos:station:wmo:42044:1,2012-04-01T14:00:00Z,26.1914,-97.0507,1009.7,11111222 
TABS,ioos:station:wmo:42044:1,2012-04-01T14:30:00Z,26.1914,-97.0507,1009.64,11111222 
TABS,ioos:station:wmo:42044:1,2012-04-01T15:00:00Z,26.1914,-97.0507,1009.57,11111222 
TABS,ioos:station:wmo:42044:1,2012-04-01T15:30:00Z,26.1914,-97.0507,1010.02,11111222 
TABS,ioos:station:wmo:42044:1,2012-04-01T16:00:00Z,26.1914,-97.0507,1010.06,11111222 
TABS,ioos:station:wmo:42044:1,2012-04-01T16:30:00Z,26.1914,-97.0507,1009.84,11111222 
TABS,ioos:station:wmo:42044:1,2012-04-01T17:00:00Z,26.1914,-97.0507,1009.45,11111222 
TABS,ioos:station:wmo:42044:1,2012-04-01T17:30:00Z,26.1914,-97.0507,1008.9,11111222 
TABS,ioos:station:wmo:42044:1,2012-04-01T18:00:00Z,26.1914,-97.0507,1008.49,11111222 
TABS,ioos:station:wmo:42044:1,2012-04-01T18:30:00Z,26.1914,-97.0507,1008.01,11111222 
TABS,ioos:station:wmo:42044:1,2012-04-01T19:00:00Z,26.1914,-97.0507,1007.38,11111222 
TABS,ioos:station:wmo:42044:1,2012-04-01T19:30:00Z,26.1914,-97.0507,1007.09,11111222 
TABS,ioos:station:wmo:42044:1,2012-04-01T20:00:00Z,26.1914,-97.0507,1006.57,11111222 
TABS,ioos:station:wmo:42044:1,2012-04-01T20:30:00Z,26.1914,-97.0507,1006.23,11111222 
TABS,ioos:station:wmo:42044:1,2012-04-01T21:00:00Z,26.1914,-97.0507,1005.85,11111222 
TABS,ioos:station:wmo:42044:1,2012-04-01T21:30:00Z,26.1914,-97.0507,1005.48,11111222 
TABS,ioos:station:wmo:42044:1,2012-04-01T22:00:00Z,26.1914,-97.0507,1005.09,11111222 
TABS,ioos:station:wmo:42044:1,2012-04-01T22:30:00Z,26.1914,-97.0507,1005.16,11111222 
TABS,ioos:station:wmo:42044:1,2012-04-01T23:00:00Z,26.1914,-97.0507,1005.44,11111222 
TABS,ioos:station:wmo:42044:1,2012-04-01T23:30:00Z,26.1914,-97.0507,1005.65,11111222 
TABS,ioos:station:wmo:42044:1,2012-04-02T00:00:00Z,26.1914,-97.0507,1005.47,11111222 
TABS,ioos:station:wmo:42044:1,2012-04-02T00:30:00Z,26.1914,-97.0507,1005.56,11111222 
TABS,ioos:station:wmo:42044:1,2012-04-02T01:00:00Z,26.1914,-97.0507,1005.8,11111222 
TABS,ioos:station:wmo:42044:1,2012-04-02T01:30:00Z,26.1914,-97.0507,1005.91,11111222 
TABS,ioos:station:wmo:42044:1,2012-04-02T02:00:00Z,26.1914,-97.0507,1006.44,11111222 
TABS,ioos:station:wmo:42044:1,2012-04-02T02:30:00Z,26.1914,-97.0507,1006.52,11111222 
TABS,ioos:station:wmo:42044:1,2012-04-02T03:00:00Z,26.1914,-97.0507,1007.08,11111222 
TABS,ioos:station:wmo:42044:1,2012-04-02T03:30:00Z,26.1914,-97.0507,1007.06,11111222 
TABS,ioos:station:wmo:42044:1,2012-04-02T04:00:00Z,26.1914,-97.0507,1006.18,11111222 
TABS,ioos:station:wmo:42044:1,2012-04-02T04:30:00Z,26.1914,-97.0507,1005.67,11111222 
TABS,ioos:station:wmo:42044:1,2012-04-02T05:00:00Z,26.1914,-97.0507,1005.11,11111222 
TABS,ioos:station:wmo:42044:1,2012-04-02T05:30:00Z,26.1914,-97.0507,1004.44,11111222 
TABS,ioos:station:wmo:42044:1,2012-04-02T06:00:00Z,26.1914,-97.0507,1004.96,11111222 
TABS,ioos:station:wmo:42044:1,2012-04-02T06:30:00Z,26.1914,-97.0507,1005.15,11111222 
TABS,ioos:station:wmo:42044:1,2012-04-02T07:00:00Z,26.1914,-97.0507,1005.14,11111222 
TABS,ioos:station:wmo:42044:1,2012-04-02T07:30:00Z,26.1914,-97.0507,1004.94,11111222 
TABS,ioos:station:wmo:42044:1,2012-04-02T08:00:00Z,26.1914,-97.0507,1004.13,11111222 
TABS,ioos:station:wmo:42044:1,2012-04-02T08:30:00Z,26.1914,-97.0507,1004.51,11111222 
TABS,ioos:station:wmo:42044:1,2012-04-02T09:00:00Z,26.1914,-97.0507,1004.36,11111222 
TABS,ioos:station:wmo:42044:1,2012-04-02T09:30:00Z,26.1914,-97.0507,1004.74,11111222 
TABS,ioos:station:wmo:42044:1,2012-04-02T10:00:00Z,26.1914,-97.0507,1004.03,11111222 
TABS,ioos:station:wmo:42044:1,2012-04-02T10:30:00Z,26.1914,-97.0507,1004.16,11111222 
TABS,ioos:station:wmo:42044:1,2012-04-02T11:00:00Z,26.1914,-97.0507,1004.44,11111222 
TABS,ioos:station:wmo:42044:1,2012-04-02T11:30:00Z,26.1914,-97.0507,1004.81,11111222 
TABS,ioos:station:wmo:42044:1,2012-04-02T12:00:00Z,26.1914,-97.0507,1004.76,11111222 
TABS,ioos:station:wmo:42044:1,2012-04-02T12:30:00Z,26.1914,-97.0507,1004.72,11111222 
TABS,ioos:station:wmo:42044:1,2012-04-02T13:00:00Z,26.1914,-97.0507,1005.01,11111222 
TABS,ioos:station:wmo:42044:1,2012-04-02T13:30:00Z,26.1914,-97.0507,1005.13,11111222 
TABS,ioos:station:wmo:42044:1,2012-04-02T14:00:00Z,26.1914,-97.0507,1005.2,11111222 
TABS,ioos:station:wmo:42044:1,2012-04-02T14:30:00Z,26.1914,-97.0507,1005.33,11111222 
TABS,ioos:station:wmo:42044:1,2012-04-02T15:00:00Z,26.1914,-97.0507,1005.72,11111222 
TABS,ioos:station:wmo:42044:1,2012-04-02T15:30:00Z,26.1914,-97.0507,1005.57,11111222 
TABS,ioos:station:wmo:42044:1,2012-04-02T16:00:00Z,26.1914,-97.0507,1005.32,11111222 
TABS,ioos:station:wmo:42044:1,2012-04-02T16:30:00Z,26.1914,-97.0507,1005.04,11111222 
TABS,ioos:station:wmo:42044:1,2012-04-02T17:00:00Z,26.1914,-97.0507,1004.76,11111222 
TABS,ioos:station:wmo:42044:1,2012-04-02T17:30:00Z,26.1914,-97.0507,1004.6,11111222 
TABS,ioos:station:wmo:42044:1,2012-04-02T18:00:00Z,26.1914,-97.0507,1004.4,11111222 
TABS,ioos:station:wmo:42044:1,2012-04-02T18:30:00Z,26.1914,-97.0507,1004.08,11111222 
TABS,ioos:station:wmo:42044:1,2012-04-02T19:00:00Z,26.1914,-97.0507,1003.94,11111222 
TABS,ioos:station:wmo:42044:1,2012-04-02T19:30:00Z,26.1914,-97.0507,1003.53,11111222 
TABS,ioos:station:wmo:42044:1,2012-04-02T20:00:00Z,26.1914,-97.0507,1003.02,11111222 
TABS,ioos:station:wmo:42044:1,2012-04-02T20:30:00Z,26.1914,-97.0507,1002.58,11111222 
TABS,ioos:station:wmo:42044:1,2012-04-02T21:00:00Z,26.1914,-97.0507,1002.49,11111222 
TABS,ioos:station:wmo:42044:1,2012-04-02T21:30:00Z,26.1914,-97.0507,1002.04,11111222 
TABS,ioos:station:wmo:42044:1,2012-04-02T22:00:00Z,26.1914,-97.0507,1002.08,11111222 
TABS,ioos:station:wmo:42044:1,2012-04-02T22:30:00Z,26.1914,-97.0507,1001.91,11111222 
TABS,ioos:station:wmo:42044:1,2012-04-02T23:00:00Z,26.1914,-97.0507,1001.73,11111222 
TABS,ioos:station:wmo:42044:1,2012-04-02T23:30:00Z,26.1914,-97.0507,1001.53,11111222 
TABS,ioos:station:wmo:42044:1,2012-04-03T00:00:00Z,26.1914,-97.0507,1001.89,11111222 
TABS,ioos:station:wmo:42044:1,2012-04-03T00:30:00Z,26.1914,-97.0507,1001.98,11111222 
TABS,ioos:station:wmo:42044:1,2012-04-03T01:00:00Z,26.1914,-97.0507,1001.72,11111222 
TABS,ioos:station:wmo:42044:1,2012-04-03T01:30:00Z,26.1914,-97.0507,1001.97,11111222 
TABS,ioos:station:wmo:42044:1,2012-04-03T02:00:00Z,26.1914,-97.0507,1002.44,11111222 
TABS,ioos:station:wmo:42044:1,2012-04-03T02:30:00Z,26.1914,-97.0507,1002.68,11111222 
TABS,ioos:station:wmo:42044:1,2012-04-03T03:00:00Z,26.1914,-97.0507,1003.16,11111222 
TABS,ioos:station:wmo:42044:1,2012-04-03T03:30:00Z,26.1914,-97.0507,1003.36,11111222 
TABS,ioos:station:wmo:42044:1,2012-04-03T04:00:00Z,26.1914,-97.0507,1003.6,11111222 
TABS,ioos:station:wmo:42044:1,2012-04-03T04:30:00Z,26.1914,-97.0507,1003.7,11111222 
TABS,ioos:station:wmo:42044:1,2012-04-03T05:00:00Z,26.1914,-97.0507,1003.37,11111222 
TABS,ioos:station:wmo:42044:1,2012-04-03T05:30:00Z,26.1914,-97.0507,1003.19,11111222 
TABS,ioos:station:wmo:42044:1,2012-04-03T06:00:00Z,26.1914,-97.0507,1003.06,11111222 
TABS,ioos:station:wmo:42044:1,2012-04-03T06:30:00Z,26.1914,-97.0507,1003.15,11111222 
TABS,ioos:station:wmo:42044:1,2012-04-03T07:00:00Z,26.1914,-97.0507,1003.08,11111222 
TABS,ioos:station:wmo:42044:1,2012-04-03T07:30:00Z,26.1914,-97.0507,1003.64,11111222 
TABS,ioos:station:wmo:42044:1,2012-04-03T08:00:00Z,26.1914,-97.0507,1003.59,11111222 
TABS,ioos:station:wmo:42044:1,2012-04-03T08:30:00Z,26.1914,-97.0507,1003.47,11111222 
TABS,ioos:station:wmo:42044:1,2012-04-03T09:00:00Z,26.1914,-97.0507,1003.39,11111222 
TABS,ioos:station:wmo:42044:1,2012-04-03T09:30:00Z,26.1914,-97.0507,1003.55,11111222 
TABS,ioos:station:wmo:42044:1,2012-04-03T10:00:00Z,26.1914,-97.0507,1003.88,11111222 
TABS,ioos:station:wmo:42044:1,2012-04-03T10:30:00Z,26.1914,-97.0507,1003.98,11111222 
TABS,ioos:station:wmo:42044:1,2012-04-03T11:00:00Z,26.1914,-97.0507,1004.21,11111222 
TABS,ioos:station:wmo:42044:1,2012-04-03T11:30:00Z,26.1914,-97.0507,1004.43,11111222 
TABS,ioos:station:wmo:42044:1,2012-04-03T12:00:00Z,26.1914,-97.0507,1004.8,11111222 
TABS,ioos:station:wmo:42044:1,2012-04-03T12:30:00Z,26.1914,-97.0507,1005.11,11111222 
TABS,ioos:station:wmo:42044:1,2012-04-03T13:00:00Z,26.1914,-97.0507,1005.19,11111222 
TABS,ioos:station:wmo:42044:1,2012-04-03T13:30:00Z,26.1914,-97.0507,1005.11,11111222 
TABS,ioos:station:wmo:42044:1,2012-04-03T14:00:00Z,26.1914,-97.0507,1005.5,11111222 
TABS,ioos:station:wmo:42044:1,2012-04-03T14:30:00Z,26.1914,-97.0507,1006.14,11111222 
TABS,ioos:station:wmo:42044:1,2012-04-03T15:00:00Z,26.1914,-97.0507,1006.02,11111222 
TABS,ioos:station:wmo:42044:1,2012-04-03T15:30:00Z,26.1914,-97.0507,1006.59,11111222 
TABS,ioos:station:wmo:42044:1,2012-04-03T16:00:00Z,26.1914,-97.0507,1006.91,11111222 
TABS,ioos:station:wmo:42044:1,2012-04-03T16:30:00Z,26.1914,-97.0507,1007.06,11111222 
TABS,ioos:station:wmo:42044:1,2012-04-03T17:00:00Z,26.1914,-97.0507,1007.02,11111222 
TABS,ioos:station:wmo:42044:1,2012-04-03T17:30:00Z,26.1914,-97.0507,1007.06,11111222 
TABS,ioos:station:wmo:42044:1,2012-04-03T18:00:00Z,26.1914,-97.0507,1007.05,11111222 
TABS,ioos:station:wmo:42044:1,2012-04-03T18:30:00Z,26.1914,-97.0507,1006.71,11111222 
TABS,ioos:station:wmo:42044:1,2012-04-03T19:00:00Z,26.1914,-97.0507,1006.45,11111222 
TABS,ioos:station:wmo:42044:1,2012-04-03T19:30:00Z,26.1914,-97.0507,1006.64,11111222 
TABS,ioos:station:wmo:42044:1,2012-04-03T20:00:00Z,26.1914,-97.0507,1006.28,11111222 
TABS,ioos:station:wmo:42044:1,2012-04-03T20:30:00Z,26.1914,-97.0507,1005.91,11111222 
TABS,ioos:station:wmo:42044:1,2012-04-03T21:00:00Z,26.1914,-97.0507,1005.47,11111222 
TABS,ioos:station:wmo:42044:1,2012-04-03T21:30:00Z,26.1914,-97.0507,1005.31,11111222 
TABS,ioos:station:wmo:42044:1,2012-04-03T22:00:00Z,26.1914,-97.0507,1005.04,11111222 
TABS,ioos:station:wmo:42044:1,2012-04-03T22:30:00Z,26.1914,-97.0507,1004.81,11111222 
TABS,ioos:station:wmo:42044:1,2012-04-03T23:00:00Z,26.1914,-97.0507,1004.74,11111222 
TABS,ioos:station:wmo:42044:1,2012-04-03T23:30:00Z,26.1914,-97.0507,1004.96,11111222 
TABS,ioos:station:wmo:42044:1,2012-04-04T00:00:00Z,26.1914,-97.0507,1005.22,11111222 
TABS,ioos:station:wmo:42044:1,2012-04-04T00:30:00Z,26.1914,-97.0507,1005.46,11111222 
TABS,ioos:station:wmo:42044:1,2012-04-04T01:00:00Z,26.1914,-97.0507,1005.75,11111222 
TABS,ioos:station:wmo:42044:1,2012-04-04T01:30:00Z,26.1914,-97.0507,1005.89,11111222 
TABS,ioos:station:wmo:42044:1,2012-04-04T02:00:00Z,26.1914,-97.0507,1005.92,11111222 
TABS,ioos:station:wmo:42044:1,2012-04-04T02:30:00Z,26.1914,-97.0507,1006.73,11111222 
TABS,ioos:station:wmo:42044:1,2012-04-04T03:00:00Z,26.1914,-97.0507,1007.39,11111222 
TABS,ioos:station:wmo:42044:1,2012-04-04T03:30:00Z,26.1914,-97.0507,1007.72,11111222 
TABS,ioos:station:wmo:42044:1,2012-04-04T04:00:00Z,26.1914,-97.0507,1007.55,11111222 
TABS,ioos:station:wmo:42044:1,2012-04-04T04:30:00Z,26.1914,-97.0507,1007.52,11111222 
TABS,ioos:station:wmo:42044:1,2012-04-04T05:00:00Z,26.1914,-97.0507,1007.75,11111222 
TABS,ioos:station:wmo:42044:1,2012-04-04T05:30:00Z,26.1914,-97.0507,1007.79,11111222 
TABS,ioos:station:wmo:42044:1,2012-04-04T06:00:00Z,26.1914,-97.0507,1007.96,11111222 
TABS,ioos:station:wmo:42044:1,2012-04-04T06:30:00Z,26.1914,-97.0507,1008.19,11111222 
TABS,ioos:station:wmo:42044:1,2012-04-04T07:00:00Z,26.1914,-97.0507,1007.95,11111222 
TABS,ioos:station:wmo:42044:1,2012-04-04T07:30:00Z,26.1914,-97.0507,1007.41,11111222 
TABS,ioos:station:wmo:42044:1,2012-04-04T08:00:00Z,26.1914,-97.0507,1007.34,11111222 
TABS,ioos:station:wmo:42044:1,2012-04-04T08:30:00Z,26.1914,-97.0507,1007.42,11111222 
TABS,ioos:station:wmo:42044:1,2012-04-04T09:00:00Z,26.1914,-97.0507,1007.5,11111222 
TABS,ioos:station:wmo:42044:1,2012-04-04T09:30:00Z,26.1914,-97.0507,1007.75,11111222 
TABS,ioos:station:wmo:42044:1,2012-04-04T10:00:00Z,26.1914,-97.0507,1007.85,11111222 
TABS,ioos:station:wmo:42044:1,2012-04-04T10:30:00Z,26.1914,-97.0507,1008.04,11111222 
TABS,ioos:station:wmo:42044:1,2012-04-04T11:00:00Z,26.1914,-97.0507,1008.31,11111222 
TABS,ioos:station:wmo:42044:1,2012-04-04T11:30:00Z,26.1914,-97.0507,1008.36,11111222 
TABS,ioos:station:wmo:42044:1,2012-04-04T12:00:00Z,26.1914,-97.0507,1008.6,11111222 
TABS,ioos:station:wmo:42044:1,2012-04-04T12:30:00Z,26.1914,-97.0507,1008.61,11111222 
TABS,ioos:station:wmo:42044:1,2012-04-04T13:00:00Z,26.1914,-97.0507,1008.86,11111222 
TABS,ioos:station:wmo:42044:1,2012-04-04T13:30:00Z,26.1914,-97.0507,1009.26,11111222 
TABS,ioos:station:wmo:42044:1,2012-04-04T14:00:00Z,26.1914,-97.0507,1009.28,11111222 
TABS,ioos:station:wmo:42044:1,2012-04-04T14:30:00Z,26.1914,-97.0507,1009.52,11111222 
TABS,ioos:station:wmo:42044:1,2012-04-04T15:00:00Z,26.1914,-97.0507,1009.6,11111222 
TABS,ioos:station:wmo:42044:1,2012-04-04T15:30:00Z,26.1914,-97.0507,1009.78,11111222 
TABS,ioos:station:wmo:42044:1,2012-04-04T16:00:00Z,26.1914,-97.0507,1010.12,11111222 
TABS,ioos:station:wmo:42044:1,2012-04-04T16:30:00Z,26.1914,-97.0507,1010.24,11111222 
TABS,ioos:station:wmo:42044:1,2012-04-04T17:00:00Z,26.1914,-97.0507,1010.11,11111222 
TABS,ioos:station:wmo:42044:1,2012-04-04T17:30:00Z,26.1914,-97.0507,1009.83,11111222 
TABS,ioos:station:wmo:42044:1,2012-04-04T18:00:00Z,26.1914,-97.0507,1009.32,11111222 
TABS,ioos:station:wmo:42044:1,2012-04-04T18:30:00Z,26.1914,-97.0507,1008.97,11111222 
TABS,ioos:station:wmo:42044:1,2012-04-04T19:00:00Z,26.1914,-97.0507,1008.34,11111222 
TABS,ioos:station:wmo:42044:1,2012-04-04T19:30:00Z,26.1914,-97.0507,1007.86,11111222 
TABS,ioos:station:wmo:42044:1,2012-04-04T20:00:00Z,26.1914,-97.0507,1007.47,11111222 
TABS,ioos:station:wmo:42044:1,2012-04-04T20:30:00Z,26.1914,-97.0507,1007.12,11111222 
TABS,ioos:station:wmo:42044:1,2012-04-04T21:00:00Z,26.1914,-97.0507,1006.46,11111222 
TABS,ioos:station:wmo:42044:1,2012-04-04T21:30:00Z,26.1914,-97.0507,1006.04,11111222 
TABS,ioos:station:wmo:42044:1,2012-04-04T22:00:00Z,26.1914,-97.0507,1005.96,11111222 
TABS,ioos:station:wmo:42044:1,2012-04-04T22:30:00Z,26.1914,-97.0507,1005.63,11111222 
TABS,ioos:station:wmo:42044:1,2012-04-04T23:00:00Z,26.1914,-97.0507,1005.71,11111222 
TABS,ioos:station:wmo:42044:1,2012-04-04T23:30:00Z,26.1914,-97.0507,1005.54,11111222 
TABS,ioos:station:wmo:42044:1,2012-04-05T00:00:00Z,26.1914,-97.0507,1005.81,11111222 
TABS,ioos:station:wmo:42044:1,2012-04-05T00:30:00Z,26.1914,-97.0507,1005.92,11111222 
TABS,ioos:station:wmo:42044:1,2012-04-05T01:00:00Z,26.1914,-97.0507,1006.03,11111222 
TABS,ioos:station:wmo:42044:1,2012-04-05T01:30:00Z,26.1914,-97.0507,1006.33,11111222 
TABS,ioos:station:wmo:42044:1,2012-04-05T02:00:00Z,26.1914,-97.0507,1007.0,11111222 
TABS,ioos:station:wmo:42044:1,2012-04-05T02:30:00Z,26.1914,-97.0507,1007.33,11111222 
TABS,ioos:station:wmo:42044:1,2012-04-05T03:00:00Z,26.1914,-97.0507,1007.95,11111222 
TABS,ioos:station:wmo:42044:1,2012-04-05T03:30:00Z,26.1914,-97.0507,1008.25,11111222 
TABS,ioos:station:wmo:42044:1,2012-04-05T04:00:00Z,26.1914,-97.0507,1008.37,11111222 
TABS,ioos:station:wmo:42044:1,2012-04-05T04:30:00Z,26.1914,-97.0507,1008.41,11111222 
TABS,ioos:station:wmo:42044:1,2012-04-05T05:00:00Z,26.1914,-97.0507,1008.57,11111222 
TABS,ioos:station:wmo:42044:1,2012-04-05T05:30:00Z,26.1914,-97.0507,1008.89,11111222 
TABS,ioos:station:wmo:42044:1,2012-04-05T06:00:00Z,26.1914,-97.0507,1008.82,11111222 
TABS,ioos:station:wmo:42044:1,2012-04-05T06:30:00Z,26.1914,-97.0507,1008.79,11111222 
TABS,ioos:station:wmo:42044:1,2012-04-05T07:00:00Z,26.1914,-97.0507,1008.32,11111222 
TABS,ioos:station:wmo:42044:1,2012-04-05T07:30:00Z,26.1914,-97.0507,1008.24,11111222 
TABS,ioos:station:wmo:42044:1,2012-04-05T08:00:00Z,26.1914,-97.0507,1008.1,11111222 
TABS,ioos:station:wmo:42044:1,2012-04-05T08:30:00Z,26.1914,-97.0507,1008.12,11111222 
TABS,ioos:station:wmo:42044:1,2012-04-05T09:00:00Z,26.1914,-97.0507,1008.33,11111222 
TABS,ioos:station:wmo:42044:1,2012-04-05T09:30:00Z,26.1914,-97.0507,1008.45,11111222 
TABS,ioos:station:wmo:42044:1,2012-04-05T10:00:00Z,26.1914,-97.0507,1008.77,11111222 
TABS,ioos:station:wmo:42044:1,2012-04-05T10:30:00Z,26.1914,-97.0507,1009.04,11111222 
TABS,ioos:station:wmo:42044:1,2012-04-05T11:00:00Z,26.1914,-97.0507,1009.25,11111222 
TABS,ioos:station:wmo:42044:1,2012-04-05T11:30:00Z,26.1914,-97.0507,1009.5,11111222 
TABS,ioos:station:wmo:42044:1,2012-04-05T12:00:00Z,26.1914,-97.0507,1009.58,11111222 
TABS,ioos:station:wmo:42044:1,2012-04-05T12:30:00Z,26.1914,-97.0507,1009.99,11111222 
TABS,ioos:station:wmo:42044:1,2012-04-05T13:00:00Z,26.1914,-97.0507,1010.22,11111222 
TABS,ioos:station:wmo:42044:1,2012-04-05T13:30:00Z,26.1914,-97.0507,1010.41,11111222 
TABS,ioos:station:wmo:42044:1,2012-04-05T14:00:00Z,26.1914,-97.0507,1010.42,11111222 
TABS,ioos:station:wmo:42044:1,2012-04-05T14:30:00Z,26.1914,-97.0507,1010.44,11111222 
TABS,ioos:station:wmo:42044:1,2012-04-05T15:00:00Z,26.1914,-97.0507,1010.39,11111222 
TABS,ioos:station:wmo:42044:1,2012-04-05T15:30:00Z,26.1914,-97.0507,1010.51,11111222 
TABS,ioos:station:wmo:42044:1,2012-04-05T16:00:00Z,26.1914,-97.0507,1010.67,11111222 
TABS,ioos:station:wmo:42044:1,2012-04-05T16:30:00Z,26.1914,-97.0507,1010.8,11111222 
TABS,ioos:station:wmo:42044:1,2012-04-05T17:00:00Z,26.1914,-97.0507,1010.51,11111222 
TABS,ioos:station:wmo:42044:1,2012-04-05T17:30:00Z,26.1914,-97.0507,1009.98,11111222 
TABS,ioos:station:wmo:42044:1,2012-04-05T18:00:00Z,26.1914,-97.0507,1009.49,11111222 
TABS,ioos:station:wmo:42044:1,2012-04-05T18:30:00Z,26.1914,-97.0507,1009.12,11111222 
TABS,ioos:station:wmo:42044:1,2012-04-05T19:00:00Z,26.1914,-97.0507,1008.7,11111222 
TABS,ioos:station:wmo:42044:1,2012-04-05T19:30:00Z,26.1914,-97.0507,1008.3,11111222 
TABS,ioos:station:wmo:42044:1,2012-04-05T20:00:00Z,26.1914,-97.0507,1008.04,11111222 
TABS,ioos:station:wmo:42044:1,2012-04-05T20:30:00Z,26.1914,-97.0507,1007.73,11111222 
TABS,ioos:station:wmo:42044:1,2012-04-05T21:00:00Z,26.1914,-97.0507,1007.6,11111222 
TABS,ioos:station:wmo:42044:1,2012-04-05T21:30:00Z,26.1914,-97.0507,1007.36,11111222 
TABS,ioos:station:wmo:42044:1,2012-04-05T22:00:00Z,26.1914,-97.0507,1007.58,11111222 
TABS,ioos:station:wmo:42044:1,2012-04-05T22:30:00Z,26.1914,-97.0507,1007.57,11111222 
TABS,ioos:station:wmo:42044:1,2012-04-05T23:00:00Z,26.1914,-97.0507,1007.59,11111222 
TABS,ioos:station:wmo:42044:1,2012-04-05T23:30:00Z,26.1914,-97.0507,1007.72,11111222 
TABS,ioos:station:wmo:42044:1,2012-04-06T00:00:00Z,26.1914,-97.0507,1007.76,11111222 
TABS,ioos:station:wmo:42044:1,2012-04-06T00:30:00Z,26.1914,-97.0507,1008.16,11111222 
TABS,ioos:station:wmo:42044:1,2012-04-06T01:00:00Z,26.1914,-97.0507,1008.62,11111222 
TABS,ioos:station:wmo:42044:1,2012-04-06T01:30:00Z,26.1914,-97.0507,1008.75,11111222 
TABS,ioos:station:wmo:42044:1,2012-04-06T02:00:00Z,26.1914,-97.0507,1009.34,11111222 
TABS,ioos:station:wmo:42044:1,2012-04-06T02:30:00Z,26.1914,-97.0507,1010.22,11111222 
TABS,ioos:station:wmo:42044:1,2012-04-06T03:00:00Z,26.1914,-97.0507,1010.45,11111222 
TABS,ioos:station:wmo:42044:1,2012-04-06T03:30:00Z,26.1914,-97.0507,1010.74,11111222 
TABS,ioos:station:wmo:42044:1,2012-04-06T04:00:00Z,26.1914,-97.0507,1010.71,11111222 
TABS,ioos:station:wmo:42044:1,2012-04-06T04:30:00Z,26.1914,-97.0507,1010.74,11111222 
TABS,ioos:station:wmo:42044:1,2012-04-06T05:00:00Z,26.1914,-97.0507,1010.83,11111222 
TABS,ioos:station:wmo:42044:1,2012-04-06T05:30:00Z,26.1914,-97.0507,1011.0,11111222 
TABS,ioos:station:wmo:42044:1,2012-04-06T06:00:00Z,26.1914,-97.0507,1010.58,11111222 
TABS,ioos:station:wmo:42044:1,2012-04-06T06:30:00Z,26.1914,-97.0507,1010.52,11111222 
TABS,ioos:station:wmo:42044:1,2012-04-06T07:00:00Z,26.1914,-97.0507,1010.04,11111222 
TABS,ioos:station:wmo:42044:1,2012-04-06T07:30:00Z,26.1914,-97.0507,1009.79,11111222 
TABS,ioos:station:wmo:42044:1,2012-04-06T08:00:00Z,26.1914,-97.0507,1009.84,11111222 
TABS,ioos:station:wmo:42044:1,2012-04-06T08:30:00Z,26.1914,-97.0507,1009.8,11111222 
TABS,ioos:station:wmo:42044:1,2012-04-06T09:00:00Z,26.1914,-97.0507,1009.86,11111222 
TABS,ioos:station:wmo:42044:1,2012-04-06T09:30:00Z,26.1914,-97.0507,1009.78,11111222 
TABS,ioos:station:wmo:42044:1,2012-04-06T10:00:00Z,26.1914,-97.0507,1010.0,11111222 
TABS,ioos:station:wmo:42044:1,2012-04-06T10:30:00Z,26.1914,-97.0507,1010.18,11111222 
TABS,ioos:station:wmo:42044:1,2012-04-06T11:00:00Z,26.1914,-97.0507,1010.44,11111222 
TABS,ioos:station:wmo:42044:1,2012-04-06T11:30:00Z,26.1914,-97.0507,1010.73,11111222 
TABS,ioos:station:wmo:42044:1,2012-04-06T12:00:00Z,26.1914,-97.0507,1011.15,11111222 
TABS,ioos:station:wmo:42044:1,2012-04-06T12:30:00Z,26.1914,-97.0507,1011.74,11111222 
TABS,ioos:station:wmo:42044:1,2012-04-06T13:00:00Z,26.1914,-97.0507,1012.15,11111222 
TABS,ioos:station:wmo:42044:1,2012-04-06T13:30:00Z,26.1914,-97.0507,1012.4,11111222 
TABS,ioos:station:wmo:42044:1,2012-04-06T14:00:00Z,26.1914,-97.0507,1012.43,11111222 
TABS,ioos:station:wmo:42044:1,2012-04-06T14:30:00Z,26.1914,-97.0507,1012.66,11111222 
TABS,ioos:station:wmo:42044:1,2012-04-06T15:00:00Z,26.1914,-97.0507,1012.76,11111222 
TABS,ioos:station:wmo:42044:1,2012-04-06T15:30:00Z,26.1914,-97.0507,1013.23,11111222 
TABS,ioos:station:wmo:42044:1,2012-04-06T16:00:00Z,26.1914,-97.0507,1013.66,11111222 
TABS,ioos:station:wmo:42044:1,2012-04-06T16:30:00Z,26.1914,-97.0507,1013.71,11111222 
TABS,ioos:station:wmo:42044:1,2012-04-06T17:00:00Z,26.1914,-97.0507,1013.56,11111222 
TABS,ioos:station:wmo:42044:1,2012-04-06T17:30:00Z,26.1914,-97.0507,1013.2,11111222 
TABS,ioos:station:wmo:42044:1,2012-04-06T18:00:00Z,26.1914,-97.0507,1013.04,11111222 
TABS,ioos:station:wmo:42044:1,2012-04-06T18:30:00Z,26.1914,-97.0507,1013.06,11111222 